Location: Sunkist
(34.0772°N, 117.1909°W)
Time: 15:42:39
(UTC+00:00)

Cosmos 1975 - Pass Details

Date: 13 April 2024
Orbit: 514 x 533 km, 82.5° (Epoch: 20 May)

Event Time Altitude Azimuth Distance (km) Brightness Sun altitude
Rises 12:44:00 0° 330° (NNW) 2,640 6.2 -8.0°
Reaches altitude 10° 12:46:57 10° 305° (NW) 1,751 5.0 -7.4°
Maximum altitude 12:49:01 14° 272° (W) 1,506 4.5 -7.0°
Drops below altitude 10° 12:51:04 10° 240° (WSW) 1,750 4.8 -6.5°
Enters shadow 12:53:27 - 218° (SW) 2,435 5.6 -6.1°
